This demonstration page uses our WeatherBlox Daily Observations layout. Learn more.

Left ArrowRight Arrow

39.29038, -76.61219

Hourly Observations for October 2, 2020

Temp ( °F °C ) Dew Point ( °F °C ) Humidity (%) Winds ( mph kmh ) Pressure ( in mb ) Visibility ( mi km ) Precip ( " mm )
12:54 am 00:54 Cloudy with Light Rain 58 14.4 55 12.8 90 90 Calm 29.97 1015 9 14 0.01 0.25
1:54 am 01:54 Cloudy 58 14.4 56 13.3 93 93 Calm 29.98 1015 10 16 0.01 0.25
2:54 am 02:54 Cloudy with Light Rain 57 13.9 55 12.8 93 93 W 6 9 29.98 1015 10 16 0.01 0.25
3:54 am 03:54 Cloudy with Light Rain 57 13.9 55 12.8 93 93 NW 3 6 29.97 1015 7 11 0.02 0.51
4:54 am 04:54 Cloudy with Light Rain 57 13.9 55 12.8 93 93 W 7 11 29.99 1016 5 8 0.03 0.76
5:54 am 05:54 Cloudy with Light Rain 57 13.9 55 12.8 93 93 NE 3 6 29.98 1015 6 10 0.04 1.02
6:54 am 06:54 Cloudy 55 13 54 12 94 94 SE 6 9 30.00 1016 10 16 0.00 0.00
7:54 am 07:54 Mostly Cloudy 56 13.3 53 11.7 90 90 S 3 6 30.00 1016 10 16 0.00 0.00
8:54 am 08:54 Mostly Cloudy 57 13.9 54 12.2 90 90 W 5 7 30.03 1017 10 16 0.00 0.00
9:54 am 09:54 Mostly Cloudy 60 15.6 53 11.7 78 78 SW 3 6 30.03 1017 10 16 0.00 0.00
10:37 am 10:37 Partly Cloudy 62 16.7 52 11.1 70 70 SW 6 9 30.03 1017 10 16 0.00 0.00
10:54 am 10:54 Partly Cloudy 61 16.1 51 10.6 70 70 WNW 7 11 30.02 1017 10 16 0.00 0.00
11:54 am 11:54 Partly Cloudy 65 18.3 46 7.8 51 51 W 8 13 30.02 1017 10 16 0.00 0.00
12:54 pm 12:54 Partly Cloudy 68 20 45 7.2 44 44 W 15 24 30.02 1017 10 16 0.00 0.00
1:54 pm 13:54 Partly Cloudy 67 19.4 42 5.6 41 41 NW 7 11 30.01 1016 10 16 0.00 0.00
2:54 pm 14:54 Partly Cloudy 68 20 43 6.1 40 40 W 14 22 30.01 1016 10 16 0.00 0.00
3:54 pm 15:54 Mostly Cloudy 67 19.4 43 6.1 42 42 W 9 15 30.01 1016 10 16 0.00 0.00
4:54 pm 16:54 Mostly Cloudy 66 18.9 43 6.1 43 43 WNW 9 15 30.02 1017 10 16 0.00 0.00
5:54 pm 17:54 Partly Cloudy 65 18.3 42 5.6 43 43 NW 8 13 30.04 1017 10 16 0.00 0.00
6:54 pm 18:54 Partly Cloudy 60 15.6 44 6.7 56 56 NW 3 6 30.05 1018 10 16 0.00 0.00
7:54 pm 19:54 Mostly Clear 57 13.9 44 6.7 62 62 WNW 5 7 30.08 1019 10 16 0.00 0.00
8:54 pm 20:54 Clear 55 12.8 44 6.7 67 67 Calm 30.10 1019 10 16 0.00 0.00
9:54 pm 21:54 Clear 50 10 45 7.2 83 83 Calm 30.12 1020 10 16 0.00 0.00
10:54 pm 22:54 Clear 49 9.4 46 7.8 90 90 W 3 6 30.14 1021 10 16 0.00 0.00
11:54 pm 23:54 Clear 50 10 46 7.8 86 86 W 5 7 30.14 1021 10 16 0.00 0.00

Powered by AerisWeather